GW5964 Weather Reports


time (UTC)temp
C
wind
direction
speed
KPH
gust
KPH
rain 1hr
cm
rain 24hr
cm
rain mn
cm
humidity
%
barometer
mb
20260906114103 18 77 0.0 0.0 0.00 0.00 0.00 99 1016.5
20260906113603 18 77 0.0 0.0 0.00 0.00 0.00 99 1016.5
20260906113057 18 76 0.0 0.0 0.00 0.00 0.00 99 1016.3
20260906112551 18 77 0.0 0.0 0.00 0.00 0.00 99 1016.3
20260906112048 18 76 0.0 0.0 0.00 0.00 0.00 99 1016.3
20260906111548 18 76 0.0 0.0 0.00 0.00 0.00 99 1016.4
20260906111043 18 76 0.0 0.0 0.00 0.00 0.00 99 1016.2
20260906110543 18 76 0.0 0.0 0.00 0.00 0.00 99 1016.2
20260906110042 18 78 0.0 0.0 0.00 0.00 0.00 99 1016.0
20260906105537 18 78 0.0 0.0 0.00 0.00 0.00 99 1016.0
20260906105033 18 78 0.0 0.0 0.00 0.00 0.00 99 1016.1
20260906104532 18 70 0.0 0.0 0.00 0.00 0.00 99 1015.8
20260906104032 17 70 0.0 0.0 0.00 0.00 0.00 99 1015.7
20260906103530 17 70 0.0 0.0 0.00 0.00 0.00 99 1015.5
20260906103025 18 70 0.0 0.0 0.00 0.00 0.00 99 1015.5
20260906102526 18 70 0.0 0.0 0.00 0.00 0.00 99 1015.4
20260906102020 18 70 0.0 0.0 0.00 0.00 0.00 99 1015.4
20260906101515 18 69 0.0 0.0 0.00 0.00 0.00 99 1015.4
20260906101010 18 69 0.0 0.0 0.00 0.00 0.00 99 1015.4
20260906100506 18 69 0.0 0.0 0.00 0.00 0.00 99 1015.4
20260906100000 18 68 0.0 0.0 0.00 0.00 0.00 99 1015.4
20260906095455 18 68 0.0 0.0 0.00 0.00 0.00 99 1015.4
20260906094950 18 86 0.0 0.0 0.00 0.00 0.00 99 1015.2
20260906094449 18 86 0.0 0.0 0.00 0.00 0.00 99 1015.3
20260906093946 18 86 0.0 0.0 0.00 0.00 0.00 99 1015.4
20260906093442 18 86 0.0 0.0 0.00 0.00 0.00 99 1015.5
20260906092941 18 86 0.0 0.0 0.00 0.00 0.00 99 1015.4
20260906092441 18 86 0.0 0.0 0.00 0.00 0.00 99 1015.4
20260906091936 18 87 0.0 0.0 0.00 0.00 0.00 99 1015.4
20260906091432 18 87 0.0 0.0 0.00 0.00 0.00 99 1015.3
20260906090929 18 71 0.0 0.0 0.00 0.00 0.00 99 1015.2
20260906090424 18 71 0.0 0.0 0.00 0.00 0.00 99 1015.0
20260906085918 18 71 0.0 0.0 0.00 0.00 0.00 99 1015.2
20260906085412 18 71 0.0 0.0 0.00 0.00 0.00 99 1015.0
20260906084911 18 71 0.0 0.0 0.00 0.00 0.00 99 1015.0
20260906084407 18 69 0.0 0.0 0.00 0.00 0.00 99 1015.1
20260906083905 18 70 0.0 0.0 0.00 0.00 0.00 99 1015.0
20260906083401 18 70 0.0 0.0 0.00 0.00 0.00 99 1015.1
20260906082901 17 73 0.0 0.0 0.00 0.00 0.00 99 1015.2
20260906082400 17 92 0.0 0.0 0.00 0.00 0.00 99 1015.1
20260906081857 18 78 0.0 0.0 0.00 0.00 0.00 99 1015.0
20260906081352 17 79 0.0 0.0 0.00 0.00 0.00 99 1015.1
20260906080848 17 79 0.0 0.0 0.00 0.00 0.00 99 1015.3
20260906080344 17 78 0.0 0.0 0.00 0.00 0.00 99 1015.0
20260906075843 17 79 0.0 0.0 0.00 0.00 0.00 99 1015.1
20260906075338 17 79 0.0 0.0 0.00 0.00 0.00 99 1015.1
20260906074834 17 80 0.0 0.0 0.00 0.00 0.00 99 1015.1
20260906074333 17 66 0.0 0.0 0.00 0.00 0.00 99 1015.0
20260906073832 17 58 0.0 0.0 0.00 0.00 0.00 99 1015.2
20260906073327 17 82 0.0 0.0 0.00 0.00 0.00 99 1015.1
20260906072824 17 82 0.0 0.0 0.00 0.00 0.00 99 1015.1
20260906072319 17 82 0.0 0.0 0.00 0.00 0.00 99 1015.0
20260906071815 17 82 0.0 0.0 0.00 0.00 0.00 99 1015.0
20260906071310 17 81 0.0 0.0 0.00 0.00 0.00 99 1015.1
20260906070807 17 83 0.0 0.0 0.00 0.00 0.00 99 1014.9
20260906070302 17 83 0.0 0.0 0.00 0.00 0.00 99 1015.1
20260906065801 17 83 1.6 1.6 0.00 0.00 0.00 99 1015.1
20260906065257 18 62 0.0 0.0 0.00 0.00 0.00 99 1015.2
20260906064752 17 63 0.0 1.6 0.00 0.00 0.00 99 1015.4
20260906064248 17 77 0.0 0.0 0.00 0.00 0.00 99 1015.6
20260906063743 17 77 0.0 0.0 0.00 0.00 0.00 99 1015.4
20260906063238 17 77 0.0 0.0 0.00 0.00 0.00 99 1015.5
20260906062733 17 100 0.0 1.6 0.00 0.00 0.00 99 1015.5
20260906062233 17 100 0.0 0.0 0.00 0.00 0.00 99 1015.7
20260906061728 18 60 1.6 1.6 0.00 0.00 0.00 99 1015.6
20260906061225 18 71 0.0 0.0 0.00 0.00 0.00 99 1015.7
20260906060720 18 66 1.6 1.6 0.00 0.00 0.00 99 1015.3
20260906060217 17 73 0.0 0.0 0.00 0.00 0.00 99 1015.4
20260906055713 18 72 0.0 0.0 0.00 0.00 0.00 99 1015.5
20260906055209 17 72 0.0 0.0 0.00 0.00 0.00 99 1015.5
20260906054704 17 72 0.0 0.0 0.00 0.00 0.00 99 1015.7
20260906054203 18 72 0.0 0.0 0.00 0.00 0.00 99 1015.6
20260906053700 18 72 0.0 0.0 0.00 0.00 0.00 99 1016.0
20260906053155 18 72 0.0 0.0 0.00 0.00 0.00 99 1015.6
20260906052651 18 72 0.0 0.0 0.00 0.00 0.00 99 1015.8
20260906052147 18 72 0.0 0.0 0.00 0.00 0.00 99 1016.1
20260906051643 18 72 0.0 0.0 0.00 0.00 0.00 99 1016.1
20260906051143 18 86 0.0 0.0 0.00 0.00 0.00 99 1016.0
20260906050638 18 86 0.0 0.0 0.00 0.00 0.00 99 1015.8
20260906050133 18 86 0.0 0.0 0.00 0.00 0.00 99 1015.8
20260906045632 18 86 0.0 0.0 0.00 0.00 0.00 99 1015.6
20260906045127 18 86 0.0 0.0 0.00 0.00 0.00 99 1015.7
20260906044623 18 86 0.0 0.0 0.00 0.00 0.00 99 1016.0
20260906044118 18 74 0.0 0.0 0.00 0.00 0.00 99 1015.6
20260906043615 18 74 0.0 0.0 0.00 0.00 0.00 99 1015.4
20260906043110 18 74 0.0 0.0 0.00 0.00 0.00 99 1015.4
20260906042609 18 74 0.0 0.0 0.00 0.00 0.00 99 1015.3
20260906042104 18 74 0.0 0.0 0.00 0.00 0.00 99 1015.1
20260906041600 18 74 0.0 0.0 0.00 0.00 0.00 99 1015.4
20260906041054 18 74 0.0 0.0 0.00 0.00 0.00 99 1015.7
20260906040550 18 82 0.0 0.0 0.00 0.00 0.00 99 1015.8
20260906040045 18 83 0.0 0.0 0.00 0.79 0.79 99 1015.7
20260906035541 18 83 0.0 0.0 0.00 0.79 0.79 99 1015.7
20260906035036 18 83 0.0 0.0 0.00 0.79 0.79 99 1016.2
20260906034536 18 82 0.0 0.0 0.00 0.79 0.79 99 1015.8
20260906034025 19 70 0.0 0.0 0.00 0.79 0.79 99 1016.3
20260906033520 19 71 0.0 0.0 0.00 0.79 0.79 99 1016.1
20260906033015 18 71 0.0 0.0 0.00 0.79 0.79 99 1016.1
20260906032507 18 71 0.0 0.0 0.00 0.79 0.79 99 1016.3
20260906032006 18 71 0.0 0.0 0.00 0.79 0.79 99 1016.2
20260906031502 18 71 0.0 0.0 0.00 0.79 0.79 99 1016.0
20260906030957 19 71 0.0 0.0 0.00 0.79 0.79 99 1016.3
20260906030452 19 71 0.0 0.0 0.00 0.79 0.79 99 1016.5
20260906025946 19 71 0.0 0.0 0.00 0.79 0.79 99 1016.6
20260906025446 19 71 0.0 0.0 0.00 0.79 0.79 99 1016.1
20260906024944 19 71 0.0 0.0 0.00 0.79 0.79 99 1016.2
20260906024444 19 71 0.0 0.0 0.00 0.79 0.79 99 1016.3
20260906023939 19 71 0.0 0.0 0.00 0.79 0.79 99 1016.3
20260906023436 19 71 0.0 0.0 0.00 0.79 0.79 99 1016.4
20260906022935 19 72 0.0 0.0 0.00 0.79 0.79 99 1016.4
20260906022431 19 71 0.0 0.0 0.00 0.79 0.79 99 1016.4
20260906021926 20 71 0.0 0.0 0.00 0.79 0.79 99 1016.4
20260906021420 20 71 0.0 0.0 0.00 0.79 0.79 98 1016.4
20260906020914 20 71 0.0 0.0 0.00 0.79 0.79 98 1016.5
20260906020415 20 71 0.0 0.0 0.00 0.79 0.79 98 1016.4
20260906015909 20 71 0.0 0.0 0.00 0.79 0.79 98 1016.3
20260906015408 20 71 0.0 0.0 0.00 0.79 0.79 98 1016.1
20260906014903 20 71 0.0 0.0 0.00 0.79 0.79 98 1016.2
20260906014402 20 71 0.0 0.0 0.00 0.79 0.79 98 1016.1
20260906013858 20 71 0.0 0.0 0.00 0.79 0.79 98 1016.0
20260906013354 20 71 0.0 0.0 0.00 0.79 0.79 97 1015.8
20260906012849 20 71 0.0 0.0 0.00 0.79 0.79 97 1015.8
20260906012344 20 72 0.0 0.0 0.00 0.79 0.79 97 1015.8
20260906011844 20 72 0.0 0.0 0.00 0.79 0.79 97 1015.8
20260906011339 20 72 0.0 0.0 0.00 0.79 0.79 97 1015.6
20260906010835 20 71 0.0 0.0 0.00 0.79 0.79 96 1015.7
20260906010331 20 71 0.0 0.0 0.00 0.79 0.79 96 1015.5
20260906005826 20 71 0.0 0.0 0.00 0.79 0.79 96 1015.4
20260906005325 20 72 0.0 0.0 0.00 0.79 0.79 96 1015.4
20260906004824 21 72 0.0 1.6 0.00 0.79 0.79 95 1015.3
20260906004324 21 70 0.0 0.0 0.00 0.79 0.79 95 1015.3
20260906003819 21 70 0.0 0.0 0.00 0.79 0.79 95 1015.2
20260906003314 21 70 0.0 0.0 0.00 0.79 0.79 94 1015.2
20260906002810 21 69 0.0 0.0 0.00 0.79 0.79 94 1015.3
20260906002310 21 69 0.0 0.0 0.00 0.79 0.79 93 1015.4
20260906001806 22 69 0.0 0.0 0.00 0.79 0.79 93 1015.2
20260906001301 22 53 3.2 3.2 0.00 0.79 0.79 93 1015.4
20260906000755 22 69 0.0 1.6 0.00 0.79 0.79 92 1015.4
20260906000249 22 69 0.0 0.0 0.00 0.79 0.79 92 1015.6
20260905235744 22 78 0.0 0.0 0.00 0.79 0.79 92 1015.6
20260905235244 22 68 0.0 0.0 0.00 0.79 0.79 91 1015.4
20260905234740 22 68 0.0 0.0 0.00 0.79 0.79 91 1015.4
20260905234235 22 65 1.6 1.6 0.00 0.79 0.79 91 1015.6
20260905233730 22 67 0.0 0.0 0.00 0.79 0.79 90 1015.5
20260905233229 23 70 0.0 0.0 0.00 0.79 0.79 90 1015.6
20260905232724 23 69 0.0 0.0 0.00 0.79 0.79 90 1015.7
20260905232220 23 69 0.0 1.6 0.00 0.79 0.79 90 1015.5
20260905231716 23 70 1.6 1.6 0.00 0.79 0.79 90 1015.6
20260905231211 23 52 1.6 1.6 0.00 0.79 0.79 89 1015.6
20260905230708 23 69 0.0 0.0 0.00 0.79 0.79 88 1015.5
20260905230205 24 52 1.6 1.6 0.00 0.79 0.79 87 1015.6
20260905225705 24 69 0.0 0.0 0.00 0.79 0.79 85 1015.6
20260905225200 25 79 0.0 0.0 0.00 0.79 0.79 85 1015.6
20260905224659 25 80 1.6 1.6 0.00 0.79 0.79 82 1015.5
20260905224154 25 70 0.0 1.6 0.00 0.79 0.79 81 1015.6
20260905223651 26 78 0.0 0.0 0.00 0.79 0.79 77 1015.7
20260905223147 26 117 0.0 1.6 0.00 0.79 0.79 76 1015.5
20260905222642 26 74 0.0 0.0 0.00 0.79 0.79 75 1015.7
20260905222137 26 51 1.6 3.2 0.00 0.79 0.79 77 1015.5
20260905221633 26 99 0.0 0.0 0.00 0.79 0.79 78 1015.4
20260905221130 26 76 0.0 0.0 0.00 0.79 0.79 76 1015.3
20260905220625 26 60 3.2 3.2 0.00 0.79 0.79 75 1015.4
20260905220121 26 78 0.0 0.0 0.00 0.79 0.79 74 1015.3
20260905215620 26 77 0.0 0.0 0.00 0.79 0.79 74 1015.2
20260905215116 26 115 0.0 1.6 0.00 0.79 0.79 72 1015.3
20260905214612 27 128 1.6 1.6 0.00 0.79 0.79 73 1015.3
20260905214111 26 340 4.8 4.8 0.00 0.79 0.79 72 1015.1
20260905213607 27 124 1.6 3.2 0.00 0.79 0.79 70 1014.8
20260905213103 27 106 3.2 3.2 0.00 0.79 0.79 72 1014.8
20260905212602 27 87 0.0 1.6 0.00 0.79 0.79 70 1014.9
20260905212102 27 103 1.6 3.2 0.00 0.79 0.79 67 1014.9
20260905211557 28 268 3.2 3.2 0.00 0.79 0.79 69 1014.6
20260905211053 28 50 3.2 3.2 0.00 0.79 0.79 66 1014.7
20260905210548 27 56 1.6 3.2 0.00 0.79 0.79 67 1014.8
20260905210043 28 116 1.6 1.6 0.00 0.79 0.79 67 1014.8
20260905205542 28 151 1.6 3.2 0.00 0.79 0.79 65 1014.6
20260905205037 28 249 1.6 3.2 0.00 0.79 0.79 68 1014.6
20260905204532 28 39 1.6 3.2 0.00 0.79 0.79 69 1014.7
20260905204026 27 192 1.6 1.6 0.00 0.79 0.79 73 1014.7
20260905203526 27 144 3.2 4.8 0.00 0.79 0.79 72 1014.8
20260905203022 27 302 3.2 4.8 0.00 0.79 0.79 72 1014.9
20260905202517 27 51 1.6 1.6 0.00 0.79 0.79 71 1014.7
20260905202013 28 92 1.6 1.6 0.00 0.79 0.79 72 1014.6
20260905201509 27 86 0.0 0.0 0.00 0.79 0.79 73 1014.7
20260905201008 27 349 4.8 4.8 0.00 0.79 0.79 74 1014.9
20260905200504 28 76 0.0 0.0 0.00 0.79 0.79 72 1014.8
20260905200003 27 101 0.0 1.6 0.00 0.79 0.79 75 1014.8
20260905195457 27 72 4.8 4.8 0.00 0.79 0.79 75 1015.0
20260905194952 27 22 4.8 4.8 0.00 0.79 0.79 72 1015.1
20260905194451 28 203 4.8 4.8 0.00 0.79 0.79 70 1015.1
20260905193947 28 134 1.6 1.6 0.00 0.79 0.79 73 1015.2
20260905193446 27 80 3.2 3.2 0.00 0.79 0.79 73 1015.2
20260905192942 27 77 0.0 1.6 0.00 0.79 0.79 75 1015.3
20260905192437 27 265 8.0 9.7 0.00 0.79 0.79 73 1015.5
20260905191932 27 99 1.6 1.6 0.00 0.79 0.79 73 1015.6
20260905191431 27 81 3.2 4.8 0.00 0.79 0.79 73 1015.5
20260905190931 27 190 4.8 4.8 0.00 0.79 0.79 72 1015.6
20260905190429 27 71 1.6 3.2 0.00 0.79 0.79 75 1015.6
20260905185928 27 1 1.6 1.6 0.00 0.79 0.79 76 1015.7
20260905185423 26 163 1.6 3.2 0.00 0.79 0.79 78 1016.1
20260905184921 26 3 0.0 1.6 0.00 0.79 0.79 76 1016.1
20260905184416 26 51 1.6 1.6 0.00 0.79 0.79 74 1016.2
20260905183915 27 41 4.8 4.8 0.00 0.79 0.79 73 1016.4
20260905183410 26 49 3.2 4.8 0.00 0.79 0.79 77 1016.5
20260905182905 26 56 0.0 1.6 0.00 0.79 0.79 77 1016.5
20260905182404 27 186 1.6 3.2 0.00 0.79 0.79 77 1016.5
20260905181901 26 153 0.0 1.6 0.00 0.79 0.79 78 1016.5
20260905181400 26 40 1.6 3.2 0.00 0.79 0.79 76 1016.5
20260905180859 26 39 1.6 3.2 0.00 0.79 0.79 76 1016.4
20260905180354 25 285 6.4 6.4 0.00 0.79 0.79 80 1016.6
20260905175849 26 116 1.6 3.2 0.00 0.79 0.79 79 1016.6
20260905175343 26 140 1.6 1.6 0.00 0.79 0.79 81 1016.4
20260905174838 26 60 3.2 3.2 0.00 0.79 0.79 79 1016.5
20260905174334 26 120 1.6 3.2 0.00 0.79 0.79 81 1016.8
20260905173829 25 351 6.4 6.4 0.00 0.79 0.79 81 1016.8
20260905173321 25 359 0.0 0.0 0.00 0.79 0.79 86 1016.7
20260905172821 26 294 8.0 12.9 0.00 0.79 0.79 82 1016.7
20260905172318 25 181 3.2 4.8 0.00 0.79 0.79 82 1016.6
20260905171814 25 274 4.8 4.8 0.00 0.79 0.79 82 1016.9
20260905171311 25 272 1.6 1.6 0.00 0.79 0.79 88 1017.0
20260905170807 24 75 3.2 3.2 0.00 0.79 0.79 88 1017.1
20260905170302 24 67 1.6 1.6 0.00 0.79 0.79 86 1017.0
20260905165801 23 24 0.0 1.6 0.00 0.79 0.79 88 1017.0
20260905165257 23 77 0.0 0.0 0.00 0.79 0.79 89 1017.3
20260905164758 23 21 1.6 3.2 0.00 0.79 0.79 89 1017.1
20260905164258 23 23 0.0 0.0 0.00 0.79 0.79 89 1017.3
20260905163753 23 32 0.0 0.0 0.00 0.79 0.79 90 1017.1
20260905163249 23 88 0.0 0.0 0.00 0.79 0.79 90 1017.0
20260905162745 23 100 0.0 1.6 0.00 0.79 0.79 91 1016.9
20260905162245 22 301 1.6 4.8 0.00 0.79 0.79 91 1017.0
20260905161739 22 350 3.2 4.8 0.00 0.79 0.79 91 1017.1
20260905161238 22 302 3.2 4.8 0.00 0.79 0.79 91 1017.2
20260905160737 22 316 4.8 4.8 0.00 0.79 0.79 91 1017.0
20260905160237 22 277 4.8 6.4 0.00 0.79 0.79 92 1017.1
20260905155732 22 273 1.6 1.6 0.00 0.79 0.79 91 1016.9
20260905155230 22 59 0.0 1.6 0.00 0.79 0.79 92 1017.0
20260905154720 22 66 3.2 3.2 0.00 0.79 0.79 91 1016.7
20260905154215 22 118 1.6 1.6 0.00 0.79 0.79 92 1016.8
20260905153710 21 121 1.6 3.2 0.00 0.79 0.79 92 1017.1
20260905153201 21 82 3.2 3.2 0.00 0.79 0.79 93 1017.0
20260905152655 21 109 1.6 4.8 0.00 0.79 0.79 92 1017.0
20260905152150 21 106 1.6 1.6 0.00 0.79 0.79 93 1017.3
20260905151645 21 97 0.0 1.6 0.00 0.79 0.79 92 1017.7
20260905151141 22 57 1.6 1.6 0.00 0.79 0.79 93 1017.7
20260905150635 22 74 1.6 1.6 0.00 0.79 0.79 91 1017.9
20260905150133 21 121 1.6 1.6 0.00 0.79 0.79 96 1018.2
20260905145631 20 61 1.6 3.2 0.00 0.79 0.79 97 1018.2
20260905145131 20 95 0.0 0.0 0.00 0.79 0.79 97 1018.3
20260905144625 20 82 1.6 1.6 0.00 0.79 0.79 97 1018.1
20260905144120 20 63 1.6 3.2 0.00 0.79 0.79 97 1018.6
20260905143620 20 78 0.0 1.6 0.00 0.79 0.79 97 1018.4
20260905143114 21 98 1.6 1.6 0.00 0.79 0.79 98 1018.4
20260905142613 20 63 0.0 0.0 0.00 0.79 0.79 98 1018.3
20260905142108 20 74 0.0 0.0 0.00 0.79 0.79 98 1018.3
20260905141607 20 71 0.0 0.0 0.00 0.79 0.79 98 1018.6
20260905141104 20 74 0.0 1.6 0.00 0.79 0.79 98 1018.6
20260905140559 20 114 3.2 3.2 0.00 0.79 0.79 98 1018.4
20260905140058 20 41 1.6 1.6 0.18 0.79 0.79 98 1018.6
20260905135553 20 96 1.6 1.6 0.18 0.79 0.79 98 1018.3
20260905135053 20 68 0.0 1.6 0.13 0.76 0.76 98 1018.4
20260905134548 20 55 3.2 4.8 1.19 0.76 0.76 98 1018.5
20260905134047 20 83 0.0 1.6 4.14 0.74 0.74 98 1018.6
20260905133543 20 75 0.0 0.0 3.07 0.53 0.53 97 1018.5
20260905133042 20 114 1.6 3.2 0.30 0.08 0.08 98 1019.0
20260905132542 21 129 3.2 3.2 0.00 0.03 0.03 99 1018.6
20260905132037 21 146 3.2 3.2 0.00 0.03 0.03 99 1018.3
20260905131532 21 65 4.8 4.8 0.00 0.03 0.03 99 1017.9
20260905131028 21 22 3.2 4.8 0.00 0.03 0.03 99 1018.1
20260905130526 21 124 1.6 3.2 0.00 0.03 0.03 99 1017.8
20260905130022 21 337 4.8 4.8 0.00 0.03 0.03 99 1017.2
20260905125521 21 78 0.0 0.0 0.00 0.03 0.03 99 1016.6
20260905125017 20 78 0.0 0.0 0.00 0.03 0.03 99 1016.7
20260905124513 20 77 0.0 0.0 0.00 0.03 0.03 99 1016.8
20260905124009 20 77 0.0 0.0 0.00 0.03 0.03 99 1016.6
20260905123505 20 77 0.0 0.0 0.00 0.03 0.03 99 1016.7
20260905123000 20 77 0.0 0.0 0.00 0.03 0.03 99 1016.9
20260905122455 20 77 0.0 0.0 0.00 0.03 0.03 99 1017.0
20260905121950 20 77 0.0 0.0 0.00 0.03 0.03 99 1016.9
20260905121445 20 77 0.0 0.0 0.00 0.03 0.03 99 1016.8
20260905120944 19 77 0.0 0.0 0.00 0.03 0.03 99 1016.7
20260905120433 18 77 0.0 0.0 0.00 0.03 0.03 99 1016.7
20260905115929 18 77 0.0 1.6 0.00 0.03 0.03 99 1016.6
20260905115427 18 76 0.0 0.0 0.00 0.03 0.03 99 1016.7
20260905114922 18 76 0.0 0.0 0.00 0.03 0.03 99 1016.5